"TOA5","MOW","CPU:UNC_MeetingWaters","DataHourly"
"TIMESTAMP","SondeTempC","SpCond","DOSat","DOmg","pH","Turb","BattVolt_Min"
"TS","","","","","","",""
"","Smp","Smp","Smp","Smp","Smp","Smp","Min"
"2006-07-01 00:00:00",20.3099994659,0.00200000009499,99.4000015259,8.98999977112,7.03999996185,16.5,12.8999996185
"2006-07-01 01:00:00",19.5400009155,0.00200000009499,99.4000015259,9.13000011444,7.07000017166,16.1000003815,12.8800001144
"2006-07-01 02:00:00",19.4400005341,0.00300000002608,98.9000015259,9.10000038147,7.11999988556,16.0,12.8599996567
"2006-07-01 03:00:00",18.7399997711,0.00300000002608,99.0999984741,9.25,7.17000007629,16.1000003815,12.8500003815
"2006-07-01 04:00:00",18.4500007629,0.00300000002608,98.9000015259,9.27000045776,7.17999982834,15.6000003815,12.8299999237
"2006-07-01 05:00:00",18.0599994659,0.00300000002608,98.8000030518,9.35000038147,7.19999980927,15.1000003815,12.8100004196
"2006-07-01 06:00:00",18.0400009155,0.00300000002608,98.3000030518,9.30000019073,7.21999979019,16.2999992371,12.7899999619
"2006-07-01 07:00:00",18.2800006866,0.00300000002608,98.5999984741,9.27999973297,7.26000022888,14.5,12.779999733
"2006-07-01 08:00:00",18.6100006104,0.00300000002608,99.1999969482,9.27000045776,7.26999998093,13.6999998093,12.7899999619
"2006-07-01 09:00:00",19.8500003815,0.00300000002608,99.5999984741,9.09000015259,7.26000022888,13.0,12.8599996567
"2006-07-01 10:00:00",21.1900005341,0.00400000018999,100.199996948,8.89999961853,7.23999977112,13.0,13.0699996948
"2006-07-01 11:00:00",22.2399997711,0.00400000018999,100.5,8.75,7.09999990463,13.3000001907,13.7700004578
"2006-07-01 12:00:00",23.6000003815,0.00300000002608,101.099998474,8.57999992371,6.82000017166,13.3000001907,13.8999996185
"2006-07-01 13:00:00",25.5200004578,0.00200000009499,102.5,8.39000034332,6.36999988556,15.1999998093,13.8599996567
"2006-07-01 14:00:00",26.9500007629,0.0010000000475,102.199996948,8.14999961853,5.23000001907,14.1000003815,13.8500003815
"2006-07-01 15:00:00",27.2900009155,0.0,102.0,8.09000015259,3.75999999046,14.6999998093,13.0600004196
"2006-07-01 16:00:00",26.4099998474,0.0,101.699996948,8.19999980927,5.44000005722,15.6000003815,13.0399999619
"2006-07-01 17:00:00",25.4099998474,0.0,101.400001526,8.31999969482,5.44999980927,15.1000003815,13.0699996948
"2006-07-01 18:00:00",24.7199993134,0.0010000000475,100.699996948,8.36999988556,5.90000009537,16.2000007629,13.0699996948
"2006-07-01 19:00:00",24.4799995422,0.0010000000475,100.800003052,8.40999984741,6.53999996185,16.2000007629,13.0
"2006-07-01 20:00:00",23.5400009155,0.0010000000475,100.5,8.52999973297,6.59000015259,13.1000003815,12.9600000381
"2006-07-01 21:00:00",22.6299991608,0.0010000000475,100.300003052,8.65999984741,6.69999980927,14.6000003815,12.9399995804
"2006-07-01 22:00:00",22.0699996948,0.0010000000475,100.099998474,8.73999977112,6.86000013351,15.0,12.9099998474
"2006-07-01 23:00:00",21.7099990845,0.0010000000475,99.9000015259,8.77999973297,6.94000005722,12.6999998093,12.8800001144
"2006-07-02 00:00:00",21.0900001526,0.0010000000475,99.6999969482,8.88000011444,6.98000001907,12.0,12.8500003815
"2006-07-02 01:00:00",20.6599998474,0.00200000009499,99.6999969482,8.93999958038,7.17999982834,12.8999996185,12.8400001526
"2006-07-02 02:00:00",20.4099998474,0.00200000009499,99.5999984741,8.98999977112,7.11000013351,12.5,12.8100004196
"2006-07-02 03:00:00",20.5200004578,0.00200000009499,99.1999969482,8.93000030518,7.17000007629,13.1000003815,12.7899999619
"2006-07-02 04:00:00",19.9099998474,0.00200000009499,99.3000030518,9.05000019073,7.17000007629,13.1000003815,12.7700004578
"2006-07-02 05:00:00",19.7199993134,0.00200000009499,99.3000030518,9.07999992371,7.17999982834,12.3000001907,12.7600002289
"2006-07-02 06:00:00",19.5599994659,0.00200000009499,99.1999969482,9.10000038147,7.21999979019,12.6999998093,12.75
"2006-07-02 07:00:00",19.8799991608,0.00200000009499,99.4000015259,9.06000041962,7.25,12.6000003815,12.75
"2006-07-02 08:00:00",20.6000003815,0.00300000002608,99.5999984741,8.94999980927,7.25,12.0,12.779999733
"2006-07-02 09:00:00",21.4500007629,0.00300000002608,99.9000015259,8.82999992371,7.23999977112,11.0,12.8400001526
"2006-07-02 10:00:00",22.6599998474,0.00300000002608,100.300003052,8.65999984741,7.11000013351,11.8999996185,13.0
"2006-07-02 11:00:00",23.8899993896,0.00200000009499,100.800003052,8.5,6.73999977112,11.6000003815,13.6000003815
"2006-07-02 12:00:00",26.2199993134,0.00200000009499,101.800003052,8.22000026703,6.15000009537,11.1999998093,13.8199996948
"2006-07-02 13:00:00",28.5799999237,0.0010000000475,103.400001526,8.02000045776,5.46999979019,11.8999996185,13.7700004578
"2006-07-02 14:00:00",30.0499992371,0.0,102.199996948,7.71999979019,4.82000017166,12.5,13.0799999237
"2006-07-02 15:00:00",28.7199993134,0.0,102.199996948,7.90000009537,4.01000022888,11.1999998093,13.0200004578
"2006-07-02 16:00:00",27.5100002289,0.0,101.800003052,8.03999996185,4.51000022888,11.3000001907,13.0
"2006-07-02 17:00:00",27.1200008392,0.0,101.400001526,8.06000041962,5.21000003815,10.8000001907,12.9799995422
"2006-07-02 18:00:00",26.5900001526,0.0,101.0,8.10999965668,6.05000019073,11.0,13.0200004578
"2006-07-02 19:00:00",26.0599994659,0.0010000000475,100.800003052,8.17000007629,6.5,11.5,12.9499998093
"2006-07-02 20:00:00",25.1100006104,0.0010000000475,100.599998474,8.30000019073,6.73999977112,10.8999996185,12.9099998474
"2006-07-02 21:00:00",24.2999992371,0.0010000000475,100.5,8.40999984741,6.86999988556,11.6999998093,12.8999996185
"2006-07-02 22:00:00",23.7900009155,0.0010000000475,100.400001526,8.47999954224,7.88000011444,12.8000001907,12.8699998856
"2006-07-02 23:00:00",23.5200004578,0.0010000000475,100.300003052,8.52000045776,7.19999980927,11.3000001907,12.8500003815
"2006-07-03 00:00:00",23.3400001526,0.00200000009499,100.199996948,8.53999996185,7.36000013351,11.1999998093,12.8299999237
"2006-07-03 01:00:00",23.1900005341,0.00200000009499,100.199996948,8.56000041962,7.23999977112,10.3999996185,12.8100004196
"2006-07-03 02:00:00",22.7999992371,0.00200000009499,100.0,8.60999965668,7.09999990463,12.3000001907,12.779999733
"2006-07-03 03:00:00",22.3999996185,0.00200000009499,99.8000030518,8.65999984741,7.11000013351,10.8999996185,12.779999733
"2006-07-03 04:00:00",22.2800006866,0.00200000009499,99.6999969482,8.67000007629,7.15999984741,12.0,12.779999733
"2006-07-03 05:00:00",21.9400005341,0.00200000009499,99.5,8.71000003815,7.17000007629,10.8000001907,12.7600002289
"2006-07-03 06:00:00",21.5699996948,0.00200000009499,99.5999984741,8.77999973297,7.23000001907,11.6000003815,12.7600002289
"2006-07-03 07:00:00",21.6299991608,0.00200000009499,99.5,8.76000022888,7.32999992371,11.8999996185,12.7600002289
"2006-07-03 08:00:00",21.9300003052,0.00200000009499,99.5999984741,8.72999954224,7.38000011444,11.8000001907,12.779999733
"2006-07-03 09:00:00",22.8999996185,0.00300000002608,100.0,8.59000015259,7.40000009537,11.6000003815,12.8500003815
"2006-07-03 10:00:00",23.8099994659,0.00300000002608,100.599998474,8.5,7.15000009537,10.6999998093,13.0
"2006-07-03 11:00:00",25.2900009155,0.00300000002608,100.599998474,8.27000045776,7.05999994278,10.1999998093,13.529999733
"2006-07-03 12:00:00",26.9099998474,0.00200000009499,101.599998474,8.10999965668,6.55000019073,12.1000003815,13.7899999619
"2006-07-03 13:00:00",29.3799991608,0.0010000000475,102.900001526,7.86000013351,5.09000015259,11.3999996185,13.7600002289
"2006-07-03 14:00:00",30.6299991608,0.0,101.900001526,7.61999988556,4.73000001907,11.1999998093,13.1000003815
"2006-07-03 15:00:00",29.8299999237,0.0,102.099998474,7.73999977112,2.23000001907,11.1000003815,13.029999733
"2006-07-03 16:00:00",28.6100006104,0.0,101.300003052,7.84000015259,5.11000013351,12.1999998093,13.0100002289
"2006-07-03 17:00:00",28.1100006104,0.0,101.199996948,7.90999984741,5.36999988556,10.8000001907,12.9899997711
"2006-07-03 18:00:00",27.5900001526,0.0,100.900001526,7.94999980927,5.86000013351,10.8999996185,13.0500001907
"2006-07-03 19:00:00",26.9799995422,0.0010000000475,100.699996948,8.02999973297,6.42000007629,11.3000001907,12.9899997711
"2006-07-03 20:00:00",25.8099994659,0.0010000000475,100.400001526,8.17000007629,6.65000009537,10.3999996185,12.9499998093
"2006-07-03 21:00:00",25.3999996185,0.0010000000475,100.199996948,8.22000026703,6.63000011444,11.3999996185,12.9099998474
"2006-07-03 22:00:00",24.5400009155,0.0010000000475,100.0,8.34000015259,6.90000009537,10.0,12.8999996185
"2006-07-03 23:00:00",24.0100002289,0.0010000000475,99.9000015259,8.40999984741,7.01999998093,10.1000003815,12.8699998856
"2006-07-04 00:00:00",23.7000007629,0.0010000000475,99.8000030518,8.44999980927,7.09999990463,13.8000001907,12.8599996567
"2006-07-04 01:00:00",23.2199993134,0.0010000000475,99.5999984741,8.51000022888,7.13000011444,10.8999996185,12.8400001526
"2006-07-04 02:00:00",23.0699996948,0.00200000009499,99.5999984741,8.52999973297,7.19000005722,11.3999996185,12.8100004196
"2006-07-04 03:00:00",23.1900005341,0.00200000009499,99.5,8.51000022888,7.21000003815,12.3000001907,12.779999733
"2006-07-04 04:00:00",22.9799995422,0.00200000009499,99.5,8.53999996185,7.21999979019,12.3999996185,12.7700004578
"2006-07-04 05:00:00",22.8899993896,0.00200000009499,99.4000015259,8.53999996185,7.25,13.6000003815,12.75
"2006-07-04 06:00:00",22.4300003052,0.00200000009499,99.1999969482,8.60000038147,7.26999998093,13.3999996185,12.7399997711
"2006-07-04 07:00:00",22.2999992371,0.00200000009499,99.3000030518,8.63000011444,7.32999992371,12.1000003815,12.7399997711
"2006-07-04 08:00:00",22.6700000763,0.00200000009499,99.5,8.59000015259,7.36000013351,11.6999998093,12.7600002289
"2006-07-04 09:00:00",23.2199993134,0.00300000002608,99.6999969482,8.52000045776,7.32000017166,10.5,12.8199996948
"2006-07-04 10:00:00",23.9500007629,0.00300000002608,99.9000015259,8.42000007629,7.23000001907,11.6000003815,12.9399995804
"2006-07-04 11:00:00",24.8899993896,0.00300000002608,100.400001526,8.31000041962,7.07000017166,9.80000019073,13.4300003052
"2006-07-04 12:00:00",26.3400001526,0.00200000009499,101.0,8.14000034332,6.98000001907,9.80000019073,13.8000001907
"2006-07-04 13:00:00",28.4799995422,0.00200000009499,101.599998474,7.88999986649,6.42000007629,9.69999980927,13.7399997711
"2006-07-04 14:00:00",29.2399997711,0.0010000000475,100.800003052,7.71999979019,5.84000015259,10.1999998093,13.7299995422
"2006-07-04 15:00:00",29.0400009155,0.0010000000475,101.300003052,7.78999996185,4.55999994278,10.8999996185,13.7100000381
"2006-07-04 16:00:00",28.3700008392,0.0,100.800003052,7.84000015259,4.44000005722,10.5,13.6999998093
"2006-07-04 17:00:00",27.7099990845,0.0,100.5,7.90999984741,5.19999980927,9.69999980927,13.6999998093
"2006-07-04 18:00:00",27.5200004578,0.0010000000475,100.099998474,7.90999984741,6.30999994278,9.5,13.0799999237
"2006-07-04 19:00:00",26.6200008392,0.0010000000475,99.9000015259,8.01000022888,6.61999988556,14.0,13.0
"2006-07-04 20:00:00",26.0,0.0010000000475,99.9000015259,8.10000038147,6.59000015259,13.8999996185,12.9600000381
"2006-07-04 21:00:00",25.2900009155,0.0010000000475,99.6999969482,8.19999980927,6.94999980927,15.8000001907,12.9399995804
"2006-07-04 22:00:00",24.7999992371,0.0010000000475,99.6999969482,8.27000045776,7.03999996185,10.6999998093,12.9099998474
"2006-07-04 23:00:00",24.3700008392,0.0010000000475,100.099998474,8.36999988556,7.0,10.1000003815,12.8900003433
"2006-07-05 00:00:00",24.1700000763,0.0010000000475,99.3000030518,8.34000015259,7.05999994278,10.0,12.8699998856
"2006-07-05 01:00:00",23.5699996948,0.0010000000475,99.0999984741,8.40999984741,7.11000013351,10.1999998093,12.8500003815
"2006-07-05 02:00:00",23.3600006104,0.0010000000475,99.0999984741,8.43999958038,7.13999986649,10.0,12.8400001526
"2006-07-05 03:00:00",23.1100006104,0.0010000000475,98.9000015259,8.47000026703,7.19999980927,10.1000003815,12.8199996948
"2006-07-05 04:00:00",22.9799995422,0.0010000000475,98.8000030518,8.47999954224,7.21999979019,10.6999998093,12.8100004196
"2006-07-05 05:00:00",22.5200004578,0.00200000009499,98.5999984741,8.53999996185,7.23000001907,9.89999961853,12.779999733
"2006-07-05 06:00:00",22.2800006866,0.00200000009499,98.5999984741,8.57999992371,7.28999996185,9.60000038147,12.7600002289
"2006-07-05 07:00:00",22.1399993896,0.00200000009499,98.5999984741,8.60000038147,7.32999992371,10.1999998093,12.7600002289
"2006-07-05 08:00:00",22.7199993134,0.00200000009499,98.6999969482,8.51000022888,7.34000015259,10.3000001907,12.779999733
"2006-07-05 09:00:00",23.25,0.00200000009499,99.1999969482,8.47000026703,7.34999990463,10.8000001907,12.8400001526
"2006-07-05 10:00:00",24.0200004578,0.00200000009499,99.0999984741,8.34000015259,7.28999996185,11.3000001907,13.1199998856
"2006-07-05 11:00:00",24.7099990845,0.00200000009499,99.4000015259,8.26000022888,7.17000007629,10.0,13.4600000381
"2006-07-05 12:00:00",25.7900009155,0.00200000009499,100.0,8.14000034332,6.94000005722,15.3999996185,13.8100004196
"2006-07-05 13:00:00",27.1800003052,0.0010000000475,99.8000030518,7.92999982834,6.46999979019,17.0,13.779999733
"2006-07-05 14:00:00",27.3799991608,0.0010000000475,99.5999984741,7.88999986649,5.5,15.6999998093,13.7899999619
"2006-07-05 15:00:00",28.6900005341,0.0,100.199996948,7.75,3.45000004768,14.8999996185,13.1300001144
"2006-07-05 16:00:00",27.4599990845,0.0,100.0,7.90999984741,4.57999992371,10.6000003815,13.0
"2006-07-05 17:00:00",26.3899993896,0.0010000000475,99.1999969482,8.0,6.40000009537,12.6999998093,13.8000001907
"2006-07-05 18:00:00",25.8899993896,0.0010000000475,99.0,8.05000019073,6.76000022888,66.6999969482,13.0
"2006-07-05 19:00:00",25.5900001526,0.0010000000475,99.0999984741,8.10000038147,7.07000017166,56.5,12.9899997711
"2006-07-05 20:00:00",25.0900001526,0.0010000000475,99.0,8.17000007629,7.11999988556,31.0,12.9399995804
"2006-07-05 21:00:00",23.25,0.0010000000475,98.8000030518,8.43999958038,7.23999977112,26.3999996185,12.9200000763
"2006-07-05 22:00:00",22.7900009155,0.00200000009499,98.8000030518,8.51000022888,7.38999986649,26.7000007629,12.8900003433
"2006-07-05 23:00:00",23.0400009155,0.00200000009499,99.3000030518,8.51000022888,7.48000001907,15.0,12.8699998856
"2006-07-06 00:00:00",22.9099998474,0.00200000009499,99.0999984741,8.51000022888,7.51000022888,14.6000003815,12.8500003815
"2006-07-06 01:00:00",22.7199993134,0.00200000009499,99.0999984741,8.55000019073,7.51999998093,14.5,12.8400001526
"2006-07-06 02:00:00",22.6299991608,0.00300000002608,99.1999969482,8.56999969482,7.53000020981,32.5,12.8199996948
"2006-07-06 03:00:00",23.8099994659,0.179000005126,93.1999969482,7.86999988556,8.72999954224,1384.0,12.8000001907
"2006-07-06 04:00:00",23.5900001526,0.0689999982715,99.0,8.39999961853,8.52999973297,1388.0,12.779999733
"2006-07-06 05:00:00",23.4099998474,0.109999999404,97.0,8.26000022888,8.27000045776,1378.0,12.7600002289
"2006-07-06 06:00:00",23.8199996948,0.202999994159,95.5999984741,8.06999969482,8.10000038147,941.0,12.7399997711
"2006-07-06 07:00:00",23.4799995422,0.245000004768,95.1999969482,8.07999992371,8.05000019073,523.599975586,12.7299995422
"2006-07-06 08:00:00",23.5300006866,0.240999996662,96.0999984741,8.15999984741,8.05000019073,649.099975586,12.7299995422
"2006-07-06 09:00:00",23.4400005341,0.202999994159,95.3000030518,8.10000038147,8.06000041962,553.5,12.7600002289
"2006-07-06 10:00:00",23.4500007629,0.195999994874,96.0999984741,8.17000007629,8.02000045776,565.0,12.7399997711
"2006-07-06 11:00:00",23.4599990845,0.136999994516,97.3000030518,8.27999973297,8.05000019073,618.799987793,12.7399997711
"2006-07-06 12:00:00",23.3600006104,0.11400000006,98.4000015259,8.39000034332,7.96000003815,442.700012207,12.7299995422
"2006-07-06 13:00:00",23.25,0.0900000035763,98.6999969482,8.43000030518,7.88999986649,519.5,12.779999733
"2006-07-06 14:00:00",23.2700004578,0.148000001907,97.8000030518,8.34000015259,7.84999990463,364.799987793,12.779999733
"2006-07-06 15:00:00",23.2099990845,0.20000000298,96.9000015259,8.27000045776,7.86999988556,314.399993896,12.8599996567
"2006-07-06 16:00:00",23.0599994659,0.237000003457,97.0999984741,8.31000041962,7.90999984741,250.600006104,12.8400001526
"2006-07-06 17:00:00",23.0200004578,0.252000004053,97.5,8.35999965668,7.96999979019,113.599998474,13.0
"2006-07-06 18:00:00",22.9200000763,0.202000007033,97.8000030518,8.39999961853,8.01000022888,90.5999984741,13.0100002289
"2006-07-06 19:00:00",22.7999992371,0.190999999642,97.3000030518,8.36999988556,8.06000041962,65.8000030518,12.8400001526
"2006-07-06 20:00:00",22.6499996185,0.193000003695,97.0999984741,8.38000011444,8.10000038147,49.2000007629,12.7299995422
"2006-07-06 21:00:00",22.3899993896,0.0560000017285,96.5999984741,8.38000011444,8.17000007629,42.5,12.7100000381
"2006-07-06 22:00:00",22.0799999237,0.0370000004768,96.5,8.43000030518,8.23999977112,38.2999992371,12.6999998093
"2006-07-06 23:00:00",21.5599994659,0.0329999998212,96.1999969482,8.47999954224,8.32999992371,36.2000007629,12.6999998093
"2006-07-07 00:00:00",20.6000003815,0.0329999998212,96.4000015259,8.65999984741,8.67000007629,30.7000007629,12.6899995804
"2006-07-07 01:00:00",19.7000007629,0.0329999998212,97.4000015259,8.90999984741,8.72999954224,24.7000007629,12.6800003052
"2006-07-07 02:00:00",19.4300003052,0.0329999998212,97.5,8.97000026703,8.82999992371,23.2000007629,12.6700000763
"2006-07-07 03:00:00",18.7099990845,0.0329999998212,98.0999984741,9.14999961853,8.82999992371,24.7000007629,12.6700000763
"2006-07-07 04:00:00",18.9300003052,0.0329999998212,101.0,9.38000011444,8.78999996185,22.1000003815,12.6700000763
"2006-07-07 05:00:00",18.8099994659,0.0329999998212,100.400001526,9.35000038147,8.75,21.5,12.6599998474
"2006-07-07 06:00:00",17.9599990845,0.0329999998212,101.5,9.61999988556,8.69999980927,18.7999992371,12.6499996185
"2006-07-07 07:00:00",17.9899997711,0.0329999998212,102.0,9.65999984741,8.67000007629,20.8999996185,12.6499996185
"2006-07-07 08:00:00",18.2199993134,0.0329999998212,101.699996948,9.59000015259,8.67000007629,17.7000007629,12.6700000763
"2006-07-07 09:00:00",18.6900005341,0.035000000149,99.5,9.28999996185,8.56999969482,21.0,12.6999998093
"2006-07-07 10:00:00",19.1900005341,0.035000000149,100.5,9.28999996185,8.81999969482,38.5,12.8100004196
"2006-07-07 11:00:00",20.1100006104,0.0340000018477,101.599998474,9.22000026703,8.75,55.7000007629,13.4499998093
"2006-07-07 12:00:00",21.7099990845,0.035000000149,102.099998474,8.97999954224,8.35999965668,84.5999984741,13.5500001907
"2006-07-07 13:00:00",22.1900005341,0.0359999984503,103.900001526,9.05000019073,8.78999996185,204.399993896,13.7399997711
"2006-07-07 14:00:00",22.6399993896,0.0320000015199,102.5,8.85999965668,8.64000034332,143.0,13.9499998093
"2006-07-07 15:00:00",22.1399993896,0.0280000008643,102.800003052,8.97000026703,8.55000019073,101.0,13.9399995804
"2006-07-07 16:00:00",21.9300003052,0.0250000003725,102.599998474,8.97999954224,8.30000019073,58.5,13.3199996948
"2006-07-07 17:00:00",21.3099994659,0.0240000002086,102.800003052,9.10999965668,8.06999969482,39.0,13.3100004196
"2006-07-07 18:00:00",21.5100002289,0.0219999998808,102.199996948,9.02000045776,7.94000005722,53.7999992371,13.1599998474
"2006-07-07 19:00:00",21.4300003052,0.0209999997169,102.199996948,9.03999996185,7.86999988556,52.9000015259,13.0399999619
"2006-07-07 20:00:00",20.6800003052,0.019999999553,102.300003052,9.18000030518,7.86999988556,150.600006104,12.9899997711
"2006-07-07 21:00:00",19.2800006866,0.019999999553,101.599998474,9.36999988556,7.94000005722,102.099998474,12.9600000381
"2006-07-07 22:00:00",18.8899993896,0.0189999993891,101.300003052,9.42000007629,8.01000022888,76.8000030518,12.9399995804
"2006-07-07 23:00:00",18.6100006104,0.0189999993891,101.0,9.44999980927,8.05000019073,90.0,12.9300003052
"2006-07-08 00:00:00",18.4400005341,0.0189999993891,101.0,9.47999954224,8.09000015259,73.6999969482,12.9099998474
"2006-07-08 01:00:00",17.9400005341,0.0189999993891,100.5,9.52000045776,8.10999965668,34.7999992371,12.8800001144
"2006-07-08 02:00:00",17.7000007629,0.0189999993891,100.199996948,9.55000019073,8.11999988556,30.8999996185,12.8699998856
"2006-07-08 03:00:00",16.8799991608,0.019999999553,100.800003052,9.76000022888,8.13000011444,35.7000007629,12.8500003815
"2006-07-08 04:00:00",16.8299999237,0.0189999993891,100.300003052,9.72999954224,8.14000034332,25.6000003815,12.8400001526
"2006-07-08 05:00:00",17.0499992371,0.019999999553,99.9000015259,9.64999961853,8.14999961853,19.1000003815,12.8400001526
"2006-07-08 06:00:00",16.2099990845,0.0189999993891,100.0,9.82999992371,8.14999961853,25.1000003815,12.8199996948
"2006-07-08 07:00:00",16.0300006866,0.019999999553,100.300003052,9.89000034332,8.15999984741,21.2000007629,12.8199996948
"2006-07-08 08:00:00",16.9200000763,0.019999999553,100.900001526,9.77000045776,8.14000034332,17.8999996185,12.8299999237
"2006-07-08 09:00:00",18.3400001526,0.019999999553,101.199996948,9.52000045776,8.11999988556,19.1000003815,12.8400001526
"2006-07-08 10:00:00",19.3299999237,0.019999999553,101.199996948,9.32999992371,8.11999988556,17.2000007629,12.9300003052
"2006-07-08 11:00:00",19.6900005341,0.0189999993891,101.699996948,9.30000019073,8.07999992371,16.3999996185,13.6199998856
"2006-07-08 12:00:00",21.1000003815,0.0179999992251,101.699996948,9.05000019073,8.01000022888,27.7000007629,13.9899997711
"2006-07-08 13:00:00",23.3500003815,0.0140000004321,101.300003052,8.63000011444,7.34999990463,23.0,13.9200000763
"2006-07-08 14:00:00",24.2099990845,0.0120000001043,101.400001526,8.51000022888,5.73000001907,21.7999992371,13.9200000763
"2006-07-08 15:00:00",23.8099994659,0.0109999999404,100.900001526,8.52000045776,5.67000007629,25.7999992371,13.9099998474
"2006-07-08 16:00:00",23.1599998474,0.0109999999404,100.599998474,8.60999965668,6.09999990463,21.7999992371,13.1499996185
"2006-07-08 17:00:00",22.7299995422,0.0109999999404,99.9000015259,8.61999988556,6.75,20.2000007629,13.1499996185
"2006-07-08 18:00:00",22.4400005341,0.00999999977648,99.8000030518,8.64999961853,6.84000015259,28.2000007629,13.0799999237
"2006-07-08 19:00:00",21.9400005341,0.00999999977648,99.5,8.71000003815,7.0,31.2000007629,13.0100002289
"2006-07-08 20:00:00",21.3400001526,0.00999999977648,99.0999984741,8.77999973297,7.11000013351,87.5999984741,12.9600000381
"2006-07-08 21:00:00",20.2299995422,0.00999999977648,98.8000030518,8.94999980927,7.09999990463,107.699996948,12.9399995804
"2006-07-08 22:00:00",19.9300003052,0.00999999977648,98.5,8.97000026703,7.26000022888,73.4000015259,12.9300003052
"2006-07-08 23:00:00",19.25,0.00899999961257,98.3000030518,9.06999969482,7.36000013351,53.4000015259,12.8999996185
"2006-07-09 00:00:00",18.9400005341,0.00899999961257,98.0,9.10000038147,7.38000011444,39.4000015259,12.8699998856
"2006-07-09 01:00:00",18.3600006104,0.00899999961257,98.1999969482,9.22999954224,7.48000001907,44.7000007629,12.8500003815
"2006-07-09 02:00:00",18.2600002289,0.00899999961257,97.6999969482,9.19999980927,7.53000020981,29.2000007629,12.8299999237
"2006-07-09 03:00:00",18.3299999237,0.00899999961257,97.5999984741,9.18000030518,7.59999990463,21.2000007629,12.8100004196
"2006-07-09 04:00:00",18.1800003052,0.00899999961257,97.5,9.19999980927,7.63000011444,27.2000007629,12.8000001907
"2006-07-09 05:00:00",17.7399997711,0.00899999961257,97.6999969482,9.30000019073,7.63999986649,29.5,12.7899999619
"2006-07-09 06:00:00",17.5599994659,0.00899999961257,97.5,9.31999969482,7.69000005722,22.7000007629,12.779999733
"2006-07-09 07:00:00",17.2099990845,0.00899999961257,97.5999984741,9.39000034332,7.69000005722,27.2999992371,12.779999733
"2006-07-09 08:00:00",18.0799999237,0.00899999961257,97.8000030518,9.23999977112,7.67999982834,33.0999984741,12.8100004196
"2006-07-09 09:00:00",19.0900001526,0.00899999961257,98.3000030518,9.10000038147,7.63999986649,24.5,12.8500003815
"2006-07-09 10:00:00",20.1100006104,0.00899999961257,98.5999984741,8.94999980927,7.63000011444,20.5,12.9799995422